Weather History for Flint, MI

Change the Weather History Date:

Thursday, March 21, 2013

  Actual Average Record
Temperature  
Mean Temperature 24 °F 36 °F  
Max Temperature 31 °F 46 °F 86 °F (2012)
Min Temperature 17 °F 27 °F 7 °F (1965)
Degree Days  
Heating Degree Days 41 29  
Month to date heating degree days 737 689  
Since 1 July heating degree days 5390 5777  
Cooling Degree Days 0 0  
Month to date cooling degree days 0 0  
Year to date cooling degree days 0 0  
Moisture  
Dew Point 18 °F    
Average Humidity 70    
Maximum Humidity 77    
Minimum Humidity 63    
Precipitation  
Precipitation 0.01 in 0.06 in 0.92 in (1972)
Month to date precipitation 0.76 1.19  
Year to date precipitation 6.22 4.30  
Snow  
Snow 0.80 in 0.10 in 7.20 in (1983)
Month to date snowfall 5.0 5.0  
Since 1 July snowfall 43.5 43.6  
Snow Depth 2.00 in    
Sea Level Pressure  
Sea Level Pressure 29.87 in    
Wind  
Wind Speed 14 mph (West)    
Max Wind Speed 21 mph    
Max Gust Speed 25 mph    
Visibility 5 miles    
Events Snow    
T = Trace of Precipitation, MM = Missing Value Source: NWS Daily Summary

Daily Weather History Graph

Daily Weather History Graph

Search for Another Location

Airport:

Trip Planner

Search our weather history database for the weather conditions in past years. The results will help you decide how hot, cold, wet, or windy it might be!

Date:

Astronomy

Mar. 21, 2013 Rise Set
Actual Time 7:36 AM EDT 7:48 PM EDT
Civil Twilight 7:07 AM EDT 8:17 PM EDT
Nautical Twilight 6:34 AM EDT 8:50 PM EDT
Astronomical Twilight 6:00 AM EDT 9:24 PM EDT
Moon 2:10 PM EDT (3/21) 4:04 AM EDT (3/21)
Length of Visible Light 13h 09m
Length of Day
12h 12m
Waxing Gibbous, 68% of the Moon is Illuminated
Mar 21
Waxing Gibbous
Mar 27
Full
Apr 3
Last Quarter
Apr 10
New
Apr 18
First Quarter

Hourly Weather History & Observations

Time (EDT) Temp. Windchill Dew Point Humidity Pressure Visibility Wind Dir Wind Speed Gust Speed Precip Events Conditions
12:53 AM 17.1 °F 5.8 °F 9.0 °F 71% 29.93 in 10.0 mi West 9.2 mph - N/A   Overcast
1:53 AM 17.6 °F 5.7 °F 10.4 °F 73% 29.88 in 10.0 mi West 10.4 mph - N/A   Overcast
2:53 AM 18.0 °F 6.1 °F 10.9 °F 74% 29.91 in 10.0 mi West 10.4 mph - N/A   Overcast
3:53 AM 19.0 °F 8.2 °F 12.9 °F 77% 29.89 in 4.0 mi West 9.2 mph - 0.00 in Snow Light Snow
4:18 AM 19.4 °F 7.9 °F 12.2 °F 74% 29.84 in 2.5 mi West 10.4 mph - 0.00 in Snow Light Snow
4:25 AM 19.4 °F 7.9 °F 12.2 °F 74% 29.84 in 3.0 mi West 10.4 mph - 0.00 in Snow Light Snow
4:49 AM 19.4 °F 8.6 °F 14.0 °F 80% 29.83 in 2.5 mi West 9.2 mph - 0.00 in Snow Light Snow
4:53 AM 19.0 °F 8.2 °F 14.0 °F 81% 29.87 in 2.5 mi West 9.2 mph - 0.00 in Snow Light Snow
5:05 AM 19.4 °F 8.6 °F 14.0 °F 80% 29.83 in 3.0 mi West 9.2 mph - 0.00 in Snow Light Snow
5:35 AM 19.4 °F 7.9 °F 14.0 °F 80% 29.82 in 2.5 mi WSW 10.4 mph - 0.00 in Snow Light Snow
5:46 AM 19.4 °F 7.2 °F 14.0 °F 80% 29.82 in 3.0 mi West 11.5 mph - 0.00 in Snow Light Snow
5:53 AM 19.9 °F 7.3 °F 14.0 °F 78% 29.86 in 3.0 mi West 12.7 mph - 0.00 in Snow Light Snow
6:00 AM 19.4 °F 7.2 °F 14.0 °F 80% 29.83 in 4.0 mi West 11.5 mph 18.4 mph 0.00 in Snow Light Snow
6:53 AM 21.0 °F 8.6 °F 15.1 °F 78% 29.86 in 4.0 mi West 12.7 mph - 0.00 in Snow Light Snow
7:04 AM 21.2 °F 7.8 °F 15.8 °F 80% 29.82 in 2.5 mi West 15.0 mph 19.6 mph 0.00 in Snow Light Snow
7:12 AM 21.2 °F 9.5 °F 15.8 °F 80% 29.82 in 3.0 mi West 11.5 mph 19.6 mph 0.00 in Snow Light Snow
7:44 AM 21.2 °F 7.3 °F 15.8 °F 80% 29.82 in 2.0 mi West 16.1 mph - 0.00 in Snow Light Snow
7:53 AM 21.0 °F 8.6 °F 16.0 °F 81% 29.86 in 2.0 mi West 12.7 mph - 0.00 in Snow Light Snow
8:00 AM 21.2 °F 9.5 °F 15.8 °F 80% 29.83 in 1.0 mi West 11.5 mph - 0.00 in Snow Light Snow
8:21 AM 21.2 °F 10.1 °F 15.8 °F 80% 29.82 in 4.0 mi West 10.4 mph - 0.01 in Snow Light Snow
8:53 AM 21.9 °F 9.2 °F 16.0 °F 78% 29.87 in 10.0 mi West 13.8 mph - 0.01 in   Overcast
9:35 AM 23.0 °F 10.6 °F 17.6 °F 80% 29.83 in 10.0 mi WNW 13.8 mph - 0.00 in   Overcast
9:53 AM 24.1 °F 12.5 °F 18.0 °F 77% 29.87 in 10.0 mi WNW 12.7 mph - 0.00 in   Overcast
10:53 AM 26.1 °F 14.0 °F 19.0 °F 75% 29.88 in 9.0 mi NW 15.0 mph - N/A   Overcast
11:00 AM 26.6 °F 15.7 °F 19.4 °F 74% 29.85 in 9.0 mi WNW 12.7 mph - N/A   Overcast
11:53 AM 27.0 °F 16.1 °F 19.9 °F 75% 29.89 in 9.0 mi West 12.7 mph - N/A   Overcast
12:53 PM 28.9 °F 17.7 °F 19.9 °F 69% 29.88 in 10.0 mi WNW 15.0 mph - N/A   Overcast
1:53 PM 30.0 °F 18.3 °F 19.9 °F 66% 29.89 in 10.0 mi WNW 17.3 mph - N/A   Overcast
2:53 PM 30.0 °F 19.1 °F 21.0 °F 69% 29.88 in 3.0 mi WNW 15.0 mph 23.0 mph 0.00 in Snow Light Snow
3:05 PM 30.2 °F 18.1 °F 21.2 °F 69% 29.85 in 3.0 mi WNW 18.4 mph - 0.00 in Snow Light Snow
3:10 PM 30.2 °F 18.1 °F 21.2 °F 69% 29.85 in 2.0 mi WNW 18.4 mph 25.3 mph 0.00 in Snow Light Snow
3:53 PM 30.0 °F 17.9 °F 23.0 °F 75% 29.88 in 2.0 mi WNW 18.4 mph - 0.00 in Snow Light Snow
4:07 PM 30.2 °F 18.5 °F 23.0 °F 75% 29.84 in 1.5 mi WNW 17.3 mph 25.3 mph 0.00 in Snow Light Snow
4:24 PM 30.2 °F 18.5 °F 23.0 °F 75% 29.85 in 2.5 mi West 17.3 mph - 0.00 in Snow Light Snow
4:29 PM 30.2 °F 18.1 °F 23.0 °F 75% 29.85 in 1.8 mi WNW 18.4 mph - 0.00 in Snow Light Snow
4:44 PM 30.2 °F 20.2 °F 23.0 °F 75% 29.85 in 2.0 mi WNW 12.7 mph - 0.00 in Snow Light Snow
4:53 PM 30.0 °F 19.5 °F 21.9 °F 72% 29.89 in 4.0 mi WNW 13.8 mph 23.0 mph 0.00 in Snow Light Snow
5:50 PM 30.2 °F 19.3 °F 21.2 °F 69% 29.86 in 2.0 mi WNW 15.0 mph - 0.00 in Snow Light Snow
5:53 PM 30.0 °F 18.7 °F 21.9 °F 72% 29.89 in 2.5 mi WNW 16.1 mph - 0.00 in Snow Light Snow
6:00 PM 30.2 °F 19.8 °F 21.2 °F 69% 29.86 in 4.0 mi WNW 13.8 mph - 0.00 in Snow Light Snow
6:09 PM 30.2 °F 18.1 °F 23.0 °F 75% 29.86 in 4.0 mi WNW 18.4 mph - 0.00 in Snow Light Snow
6:21 PM 30.2 °F 20.2 °F 23.0 °F 75% 29.86 in 2.0 mi NW 12.7 mph - 0.00 in Snow Light Snow
6:32 PM 30.2 °F 18.9 °F 21.2 °F 69% 29.86 in 2.0 mi WNW 16.1 mph 21.9 mph 0.00 in Snow Light Snow
6:53 PM 30.0 °F 19.5 °F 21.9 °F 72% 29.90 in 2.0 mi WNW 13.8 mph - 0.00 in   Haze
7:00 PM 30.2 °F 18.1 °F 21.2 °F 69% 29.86 in 10.0 mi WNW 18.4 mph 23.0 mph N/A   Overcast
7:53 PM 30.0 °F 19.1 °F 19.0 °F 64% 29.91 in 10.0 mi WNW 15.0 mph - 0.00 in   Overcast
8:53 PM 28.9 °F 17.7 °F 18.0 °F 64% 29.91 in 10.0 mi WNW 15.0 mph - N/A   Overcast
9:53 PM 28.9 °F 19.2 °F 18.0 °F 64% 29.92 in 10.0 mi WNW 11.5 mph 21.9 mph N/A   Overcast
10:53 PM 28.0 °F 16.1 °F 18.0 °F 66% 29.94 in 10.0 mi WNW 16.1 mph 23.0 mph N/A   Overcast
11:53 PM 28.0 °F 16.1 °F 17.1 °F 63% 29.94 in 10.0 mi WNW 16.1 mph - 0.00 in   Overcast